GFSGL_850_spd_336.txt.gz
Wind_Speed
34 32 25 24 28 32 32 25 20 18 16 11 13 15 14 13 13 13 11 9 8 8 7 5 5 5 3 2 2 2 2 2 2 3 3 3 3 3 4 4 6 6 6
27 28 33 33 32 29 28 23 23 20 17 16 15 15 13 13 14 13 11 11 10 9 8 6 4 4 5 5 2 2 2 1 2 3 4 3 3 3 4 4 4 5 6
22 27 31 33 32 29 27 25 25 23 18 15 17 15 15 14 14 13 13 11 10 8 7 5 4 4 4 4 4 3 4 3 3 4 4 4 4 5 5 8 8 9 10
18 20 26 28 29 23 20 22 18 15 16 17 15 14 13 12 12 12 12 11 11 9 7 6 6 5 5 4 4 5 5 4 6 5 6 7 6 7 7 8 9 10 12
22 26 24 20 18 19 18 17 17 18 16 15 13 13 13 13 12 12 12 11 10 7 7 7 7 9 11 9 6 6 7 6 7 8 8 8 8 8 9 11 14 14 14
16 17 17 16 17 16 16 18 18 17 16 15 14 13 13 10 13 14 12 9 9 9 9 8 9 11 11 12 12 13 12 9 9 10 11 10 10 9 10 11 13 15 17
13 15 16 16 16 15 16 16 16 15 14 14 15 15 14 11 13 13 13 11 10 9 8 8 8 8 13 10 12 14 15 15 15 14 14 13 13 11 11 13 14 16 19
12 13 16 15 16 16 17 15 13 13 14 13 13 13 11 10 11 10 10 9 8 8 9 9 11 11 12 12 12 13 13 14 15 15 16 17 16 15 15 16 18 20 19
14 15 15 15 15 15 13 14 14 12 12 12 10 11 11 10 10 11 11 9 9 12 13 12 11 11 12 11 14 15 15 15 15 18 16 20 22 22 23 24 22 21 24
11 11 13 12 13 14 14 15 14 12 11 9 9 9 10 9 12 13 13 11 13 12 12 13 12 11 12 11 13 12 13 11 11 11 15 17 17 20 22 25 25 22 24
14 12 13 13 14 14 15 15 14 13 9 10 11 11 12 13 13 17 19 17 14 12 11 11 11 11 8 11 13 16 16 13 14 15 16 17 17 19 21 20 20 23 23
13 13 14 15 13 13 15 15 14 13 13 13 13 13 13 15 16 17 18 18 16 15 14 12 11 14 13 14 16 17 17 18 21 19 20 21 22 24 23 23 23 24 23
15 14 14 14 13 13 14 14 13 14 14 13 14 13 13 14 14 17 17 17 16 16 14 14 15 15 14 16 17 19 21 23 24 23 24 25 25 22 22 22 24 23 24
16 15 14 14 13 13 13 13 14 15 15 15 15 14 14 14 15 15 15 17 18 18 17 15 15 16 18 19 24 26 27 27 27 23 23 22 21 21 23 21 21 20 19
16 15 14 13 14 13 15 15 15 15 15 15 15 14 13 13 13 14 14 13 13 14 15 14 15 16 17 17 18 18 18 17 17 17 17 18 19 20 20 18 18 18 20
18 16 15 13 13 12 12 12 16 18 17 21 20 18 14 16 16 15 16 17 19 20 20 20 19 19 19 17 16 15 15 17 18 17 16 17 17 17 20 21 20 22 23
20 17 15 15 14 13 12 12 13 15 15 19 24 26 24 20 17 17 18 19 22 23 25 21 20 18 16 16 15 16 17 16 16 15 15 16 17 18 19 19 18 18 19
22 21 18 16 16 16 15 13 13 14 15 15 14 16 23 23 22 22 24 24 25 27 29 24 22 19 17 16 15 16 15 14 14 14 15 16 16 16 16 14 16 19 18
23 22 21 18 19 19 20 16 16 15 15 15 13 14 17 21 24 24 24 26 26 24 21 20 19 19 18 15 14 14 15 14 15 15 15 14 15 13 15 17 17 16 13
22 24 23 24 19 21 21 22 20 21 19 17 18 17 14 16 16 15 18 19 21 20 21 22 22 21 18 16 15 15 15 15 14 13 13 12 14 15 16 16 17 17 16
20 22 26 25 26 24 23 25 26 25 24 19 20 20 21 18 18 18 19 20 21 21 22 22 23 23 20 18 16 16 17 16 16 16 15 15 15 17 17 17 18 18 19
22 25 26 25 23 27 26 23 27 24 22 21 22 22 24 26 25 25 25 25 25 24 23 23 24 24 24 21 19 17 18 18 17 16 16 16 16 17 18 18 20 20 20
17 20 22 24 24 24 24 23 25 21 22 21 21 22 22 22 22 21 22 24 24 24 23 24 24 26 25 24 22 20 20 20 19 17 16 16 17 18 19 21 21 20 21
17 17 20 21 24 25 22 26 22 22 23 22 21 20 20 21 23 24 25 26 24 24 25 25 27 28 27 25 23 22 22 21 20 18 17 15 16 17 18 19 20 19 20
18 21 22 22 22 23 25 24 22 22 23 22 22 21 21 24 25 26 26 27 27 27 27 28 28 29 29 27 27 26 26 29 26 21 15 13 13 15 16 17 17 18 18
17 18 20 21 21 20 23 23 22 23 23 23 22 22 24 25 27 28 28 28 28 28 27 27 28 30 29 28 30 30 35 35 31 23 14 10 13 13 13 15 16 17 19

GFSGL_850_spd_339.txt.gz
Wind_Speed
27 32 31 32 11 14 18 21 18 22 24 19 13 14 14 11 10 10 10 11 11 11 11 9 10 8 4 4 2 2 1 2 4 1 4 6 5 1 4 3 5 7 5
31 30 30 30 19 24 30 27 27 25 20 16 17 13 10 12 12 12 11 10 11 12 13 11 7 7 12 9 5 5 3 3 2 2 4 7 2 6 4 7 4 2 6
30 29 34 35 33 32 30 22 21 17 21 18 14 13 13 14 13 12 12 9 7 8 8 7 8 8 8 6 8 4 3 2 3 3 4 3 4 4 5 8 8 8 8
23 27 31 32 32 32 27 24 26 22 20 19 18 15 15 16 14 15 14 13 11 9 9 9 8 7 6 7 6 5 6 6 6 5 6 6 6 4 7 4 8 6 9
26 27 27 27 25 24 25 24 21 21 21 16 17 18 16 15 12 13 12 11 11 11 10 10 8 8 10 10 7 7 6 6 7 8 7 6 6 6 4 7 9 10 9
21 23 24 23 22 20 18 17 19 17 17 18 16 13 13 10 15 13 13 10 10 9 8 7 9 13 14 14 12 14 13 10 9 8 8 8 7 8 6 8 8 11 12
14 17 18 18 16 14 15 15 16 19 16 15 15 13 12 13 15 13 14 11 8 8 8 8 8 9 12 9 10 10 13 15 14 14 13 12 12 8 10 11 11 13 14
9 11 13 14 15 15 16 17 17 16 16 14 14 14 13 11 10 13 13 14 9 10 10 10 10 10 10 10 10 11 10 11 12 12 14 13 14 13 14 14 17 19 17
8 9 13 16 15 17 16 17 17 14 14 13 12 13 11 11 10 13 14 12 10 11 11 11 11 11 12 15 13 13 13 13 13 18 15 15 18 19 20 21 22 19 20
11 14 14 13 14 15 18 16 15 13 12 11 11 11 12 12 12 12 13 10 11 11 10 11 14 12 14 15 13 12 13 11 11 12 15 17 16 15 16 19 21 21 21
11 14 14 14 14 14 14 14 13 13 12 12 11 12 12 12 13 14 14 15 13 12 11 14 14 15 11 12 14 15 15 12 14 16 15 17 19 22 19 20 25 25 22
12 12 12 13 12 12 13 12 11 12 11 10 12 11 13 13 14 17 17 18 17 17 14 15 15 14 15 15 17 17 16 16 21 19 19 19 21 20 20 21 24 21 21
13 12 12 11 12 10 11 12 11 11 12 11 12 11 12 13 14 14 16 16 17 18 17 17 16 13 14 20 21 19 20 22 24 21 22 23 24 23 24 24 24 26 30
13 12 11 11 12 12 10 11 11 13 13 13 16 14 14 12 13 14 15 11 15 19 21 20 19 20 22 20 21 22 24 25 22 21 23 23 23 22 21 20 18 19 22
13 12 11 11 12 12 12 14 13 14 16 15 14 14 13 13 14 16 16 16 16 17 17 18 18 20 18 19 20 21 22 18 18 18 20 20 22 23 22 19 20 20 20
15 13 13 13 15 10 15 11 18 19 16 22 22 18 15 11 10 9 17 21 19 15 17 18 19 19 20 22 22 23 18 19 21 23 22 21 26 21 19 18 19 21 22
19 15 15 14 15 16 14 17 17 20 17 17 16 23 30 29 21 21 18 20 24 25 27 24 24 23 25 25 24 20 19 19 19 18 20 21 20 20 21 20 20 20 21
22 20 17 17 14 16 20 19 17 16 24 21 19 17 12 19 30 28 25 24 26 27 28 29 28 28 28 27 23 21 21 20 20 20 19 19 19 19 20 20 19 18 20
24 23 22 20 18 19 18 18 17 20 18 16 16 18 16 12 15 24 28 29 28 26 26 28 30 29 31 25 24 23 24 22 20 19 20 20 20 19 20 19 19 21 23
27 25 24 23 21 21 21 24 22 24 24 19 22 23 19 20 19 22 25 27 29 28 24 27 28 31 30 24 26 27 25 24 23 21 23 22 21 20 19 19 19 19 19
19 20 25 24 24 24 23 25 25 26 25 23 20 25 24 21 21 23 26 22 23 21 22 24 26 29 30 31 31 29 28 27 25 24 22 22 21 22 22 21 20 20 20
19 20 22 28 26 27 29 28 32 31 25 23 27 31 28 31 25 28 27 26 29 30 30 30 30 29 28 29 33 35 31 30 28 26 25 24 23 23 23 23 23 22 20
18 19 21 22 24 28 33 27 31 33 30 19 19 30 35 29 27 26 27 33 36 38 37 35 34 33 26 31 33 35 34 32 32 29 27 26 25 24 23 23 22 22 21
17 19 20 20 22 25 29 31 30 29 28 29 31 27 24 23 24 27 30 31 32 35 35 34 38 32 29 28 31 35 36 33 32 30 31 29 27 25 24 21 20 19 19
18 21 23 22 24 26 27 26 31 26 26 34 32 20 23 24 25 24 23 28 30 32 31 31 28 30 28 29 33 36 38 38 37 34 29 28 27 23 20 19 16 20 21
22 24 26 21 22 24 26 26 25 24 28 26 23 25 26 28 30 23 23 27 30 32 34 30 31 34 35 33 34 34 39 43 39 39 37 32 28 23 22 16 22 22 22

GFSGL_850_spd_342.txt.gz
Wind_Speed
26 28 32 34 29 31 23 18 19 15 13 19 14 11 8 8 12 15 11 8 11 13 9 9 13 11 9 6 8 6 5 6 4 9 2 5 4 8 6 7 1 3 2
22 28 30 30 28 26 29 22 24 18 15 17 16 11 10 8 12 11 11 11 11 12 12 10 10 10 10 7 5 5 4 8 5 1 3 1 3 5 2 3 4 3 5
28 31 29 32 31 35 28 24 21 17 19 19 15 13 11 9 9 11 12 10 11 10 10 9 7 7 8 7 7 6 6 5 4 6 3 5 7 4 3 3 5 3 2
26 26 29 33 33 36 23 22 22 19 19 17 14 12 11 9 9 11 11 11 8 9 8 8 9 8 12 12 13 10 6 7 6 4 6 7 11 9 4 6 7 9 4
20 31 35 33 35 37 29 25 21 22 20 15 15 13 11 12 11 13 11 11 11 9 8 9 8 6 7 9 10 8 8 7 7 9 14 9 10 8 5 4 5 5 0
20 18 23 26 25 28 24 25 23 20 16 17 15 15 17 14 12 12 12 10 11 13 13 10 11 13 13 14 12 12 12 14 14 14 11 6 1 2 4 5 8 10 11
15 18 14 21 22 21 20 20 18 15 16 15 15 14 12 13 14 14 13 13 10 10 10 11 11 12 14 11 9 11 14 17 17 15 16 16 14 9 10 12 11 13 14
9 10 15 18 17 15 12 12 14 13 15 15 14 13 11 12 12 15 16 19 16 12 13 12 14 13 6 8 8 9 9 7 7 8 10 11 13 14 15 16 17 15 16
5 8 11 11 11 12 12 13 13 13 12 14 13 14 18 17 14 14 17 20 17 16 16 15 14 13 15 15 16 18 16 16 13 13 14 11 11 10 13 18 19 20 22
6 7 12 13 12 15 14 12 14 13 12 11 10 13 15 14 11 10 14 16 13 11 12 15 17 16 19 18 16 13 12 10 9 11 11 12 14 15 14 17 17 21 23
9 8 8 8 12 12 13 15 15 13 11 13 11 10 11 14 14 14 13 17 17 17 17 19 16 12 12 9 8 11 11 8 11 14 14 16 15 15 19 21 21 20 23
6 10 11 10 12 12 14 14 14 14 14 14 15 15 14 15 16 15 16 16 17 23 20 15 11 10 17 18 14 11 12 13 16 17 19 20 22 23 25 26 21 20 22
10 9 10 11 12 14 15 15 15 15 14 13 13 14 15 19 21 16 13 13 17 21 25 22 15 9 10 16 17 15 16 19 20 22 24 24 21 22 25 23 23 24 24
14 14 13 13 15 14 8 12 12 15 13 16 18 20 20 17 19 21 18 14 14 17 20 21 21 19 19 18 19 21 22 23 25 25 25 18 19 25 28 24 21 21 20
15 15 14 14 15 15 15 16 14 14 19 21 20 14 18 20 21 22 27 21 17 14 15 18 19 20 21 22 24 24 25 25 25 20 22 22 23 19 24 24 26 25 25
18 17 16 17 18 18 18 13 18 21 19 22 21 18 22 11 8 6 8 23 19 16 17 19 20 18 19 22 24 26 24 31 31 22 26 24 26 26 23 19 17 17 18
22 19 17 16 20 21 18 25 20 15 16 20 20 21 29 30 27 21 18 16 19 20 21 22 21 22 24 24 25 28 30 24 24 23 23 25 22 19 19 20 24 26 26
25 23 21 18 19 15 18 23 21 21 22 21 23 26 22 17 22 29 35 29 26 28 29 29 30 31 33 32 29 30 35 34 23 24 25 25 29 30 29 26 24 24 25
25 25 23 24 20 17 17 17 24 23 23 21 12 19 24 25 24 22 26 33 35 35 33 33 34 35 35 35 36 39 34 28 29 32 31 28 29 28 29 30 30 27 24
24 24 22 24 25 22 23 24 19 21 22 20 21 27 18 16 24 29 27 27 33 36 36 36 35 34 34 35 37 39 32 31 36 36 33 32 30 28 30 29 27 24 23
23 25 31 31 31 29 27 26 26 26 29 24 28 22 26 30 27 25 34 31 30 28 36 39 35 33 33 33 35 37 42 32 40 38 34 36 36 34 32 32 27 26 24
26 25 26 27 33 33 30 28 23 24 24 22 29 33 31 33 36 34 31 37 38 26 28 30 31 30 30 32 36 35 35 40 38 40 39 37 35 35 32 30 29 28 27
23 27 30 31 33 34 32 32 33 37 37 36 37 42 41 33 37 37 39 37 39 33 32 30 32 35 30 30 35 39 36 43 45 44 43 43 40 37 35 33 31 30 32
21 22 21 22 22 23 30 33 34 35 32 31 28 29 40 38 33 36 43 39 43 37 39 38 34 40 47 42 33 32 44 41 46 47 46 43 39 36 36 36 34 34 32
22 22 23 23 22 24 23 31 33 30 33 35 37 20 36 41 39 40 35 34 30 35 36 41 40 39 35 44 48 41 45 45 49 43 44 43 42 40 40 39 39 38 31
28 28 26 26 28 23 25 28 25 27 26 33 31 31 30 30 32 31 27 26 29 37 28 31 32 29 32 37 41 49 34 40 29 35 38 42 36 38 41 41 37 34 28

GFSGL_850_spd_345.txt.gz
Wind_Speed
33 35 37 34 26 22 30 33 12 18 14 15 12 8 9 9 13 15 15 11 11 12 15 15 13 13 12 11 9 7 8 10 12 14 12 7 1 3 6 3 5 5 4
24 27 33 32 28 31 35 26 20 12 13 14 10 9 8 10 9 10 11 9 11 14 13 14 15 12 10 9 7 8 8 9 14 11 8 7 4 4 3 4 4 5 2
19 24 26 12 26 29 30 30 27 17 20 13 14 12 13 10 8 11 12 12 12 12 13 11 10 12 14 12 10 11 10 13 11 11 9 6 4 5 6 5 2 2 3
21 21 25 19 13 24 33 28 24 22 22 16 12 11 14 11 10 13 14 12 11 12 12 12 11 10 11 15 12 10 10 9 9 8 8 9 8 7 4 1 3 6 4
15 19 23 20 14 22 27 21 21 26 22 15 13 14 14 11 13 14 13 11 11 11 10 11 10 7 11 13 10 12 12 11 10 11 7 7 12 12 12 6 6 6 3
14 19 16 26 23 23 27 34 28 19 19 19 17 15 13 13 12 11 11 11 12 13 11 12 11 7 8 8 8 11 11 11 10 13 11 6 8 10 11 12 10 11 12
11 12 12 14 20 16 32 26 23 22 20 19 14 15 14 16 13 13 12 13 14 14 14 13 15 12 7 6 7 8 13 16 16 16 17 17 13 10 11 12 12 13 13
8 12 14 13 15 17 16 17 18 15 14 13 13 13 13 13 14 15 14 16 15 10 11 10 10 10 11 9 12 9 7 8 9 11 12 13 14 14 16 18 17 16 16
3 4 8 10 11 12 12 12 11 10 11 14 13 12 14 14 16 16 15 17 18 17 15 15 13 11 13 9 10 11 12 13 12 11 11 8 7 7 10 13 15 15 16
3 5 6 7 6 8 11 11 14 12 9 10 15 17 17 17 14 12 13 18 23 21 19 20 18 15 14 14 16 17 18 15 17 19 16 11 11 13 13 13 13 16 18
5 6 7 9 9 11 12 12 12 12 12 13 13 12 15 18 16 13 12 15 20 19 17 15 12 11 10 14 18 19 14 8 10 14 17 17 15 13 13 14 16 20 23
8 10 9 9 9 11 14 14 15 15 14 14 13 11 12 13 14 15 16 17 16 20 22 20 17 16 23 23 19 15 10 12 14 15 17 18 16 15 15 18 18 22 22
12 12 11 12 10 11 12 16 16 15 18 17 18 17 16 18 16 14 15 14 14 18 22 25 22 15 16 16 20 22 18 19 19 19 20 20 19 19 20 19 20 22 17
14 14 14 14 16 15 14 14 16 18 20 18 18 16 16 16 17 15 18 18 15 16 17 21 28 25 23 19 19 23 24 24 22 23 24 23 22 21 20 20 24 28 23
16 15 16 15 16 17 16 12 15 17 17 16 18 18 17 19 21 24 24 20 20 16 14 15 21 26 30 26 26 26 28 27 26 26 26 25 23 24 24 24 27 24 26
21 19 19 17 17 17 18 18 15 12 13 14 16 16 20 22 17 11 12 18 24 22 23 22 19 20 24 26 27 26 24 25 25 25 25 26 28 29 29 27 30 25 24
24 21 19 17 17 18 20 18 20 20 22 22 22 22 24 25 25 23 21 17 14 24 28 27 26 24 23 23 23 22 23 23 22 25 24 27 29 34 32 29 28 26 27
26 21 19 19 23 25 26 24 20 19 23 23 22 23 22 23 25 28 27 24 23 24 29 30 31 30 29 28 30 30 30 32 32 30 31 37 37 36 32 30 30 30 30
31 26 26 27 26 20 21 22 31 28 25 24 21 19 19 17 20 26 30 30 31 33 36 37 37 36 36 36 35 34 35 35 33 32 35 35 33 32 35 33 33 34 33
27 27 26 31 30 27 27 23 22 20 22 26 30 27 24 25 24 25 27 34 33 33 34 37 39 39 38 36 35 34 33 33 34 36 38 36 35 37 41 39 38 36 36
27 26 28 25 28 31 30 28 28 26 27 28 28 29 29 29 28 30 28 27 30 34 35 36 35 37 33 33 36 37 38 36 36 38 42 42 39 41 43 42 40 38 37
22 25 28 34 31 33 33 32 34 32 32 33 34 34 33 31 34 32 34 33 36 36 35 35 34 34 32 32 30 29 32 35 34 28 39 46 50 45 44 46 44 41 38
27 28 26 29 28 22 26 33 36 38 37 35 34 36 38 36 39 39 36 35 34 37 39 37 32 36 37 34 33 31 32 34 27 26 26 38 42 48 52 51 47 47 45
31 32 29 30 27 20 32 39 34 36 34 36 40 42 40 42 41 40 38 33 31 32 35 38 36 37 38 33 36 32 26 33 36 37 40 40 41 45 53 54 52 55 53
31 25 28 27 21 20 14 19 18 21 26 32 40 42 47 41 35 37 30 32 33 33 37 37 33 33 35 32 32 36 38 26 37 41 35 43 41 43 43 44 58 55 53
20 21 24 23 24 26 28 28 25 35 30 31 32 32 34 42 28 36 39 34 30 35 39 26 26 28 29 29 32 30 29 34 40 37 29 41 47 49 37 37 51 48 39